Regional Weather Roundup
Issued by NWS Little Rock, AR

Home | Current Version | Previous Version | Graphics & Text | Print | Product List | Glossary On
Versions: 1 2 3 4 5 6 7 8 9 10 11 12 13 14 15 16 17 18 19 20 21 22 23 24 25 26 27 28 29 30 31 32 33 34 35 36 37 38 39 40 41 42 43 44 45 46 47 48 49 50
000
ASUS44 KLZK 010405
RWRLZK

WEATHER ROUNDUP FOR ARKANSAS
NATIONAL WEATHER SERVICE LITTLE ROCK AR
1100 PM CDT THU JUL 31 2014

NOTE: "FAIR" INDICATES FEW OR NO CLOUDS BELOW 12,000 FEET WITH NO
SIGNIFICANT WEATHER AND/OR OBSTRUCTIONS TO VISIBILITY.

ARZ001-003-010-029-010500-
NORTHWEST ARKANSAS

CITY           SKY/WX    TMP DP  RH WIND       PRES   REMARKS
FAYETTEVILLE   CLOUDY    67  65  93 S3        30.09S
FORT SMITH     CLOUDY    69  65  86 E5        30.06R
HARRISON       CLOUDY    66  66 100 CALM      30.09S
BENTONVILLE      N/A     64  63  94 CALM      30.09S VSB 1/2
ROGERS         FOG       66  65  96 CALM      30.09F VSB 3/4
SILOAM SPGS    MOCLDY    66  59  77 SW3       30.10R VSB 1/2
HIGHFILL       CLEAR     65  65 100 CALM      30.08S
$$

ARZ004-005-016-010500-
NORTH CENTRAL ARKANSAS

CITY           SKY/WX    TMP DP  RH WIND       PRES   REMARKS
BATESVILLE     CLOUDY    70  66  88 CALM      30.07S
FLIPPIN        CLOUDY    66  64  94 CALM      30.08S
MTN HOME       CLOUDY    66  65  96 E3        30.07S
$$

ARZ040-041-010500-
WEST CENTRAL ARKANSAS

CITY           SKY/WX    TMP DP  RH WIND       PRES   REMARKS
MENA           CLOUDY    68  66  94 E5        30.07S
MOUNT IDA      CLOUDY    67  64  90 CALM      30.05R
$$

ARZ009-017-025-026-028-010500-
NORTHEAST ARKANSAS

CITY           SKY/WX    TMP DP  RH WIND       PRES   REMARKS
CORNING        CLOUDY    68  68 100 N3        30.08S
JONESBORO      CLOUDY    69  67  93 CALM      30.07R
NEWPORT        CLOUDY    70  68  93 CALM      30.08S
WALNUT RIDGE   MOCLDY    72  66  83 CALM      30.07R
BLYTHEVILLE    CLOUDY    71  68  90 CALM      30.06F
$$

ARZ022-023-033-042-044-010500-
CENTRAL ARKANSAS

CITY           SKY/WX    TMP DP  RH WIND       PRES   REMARKS
LITTLE ROCK    CLOUDY    70  65  84 E5        30.06S
N LITTLE ROCK  CLOUDY    68  68 100 E5        30.06S
SEARCY         MOCLDY    69  68  97 CALM      30.07F
HOT SPRINGS    CLOUDY    67  65  93 E3        30.06F
RUSSELLVILLE   CLOUDY    70  67  90 CALM      30.07R
CLINTON        MOCLDY    70  68  94 CALM      30.08S
$$

ARZ036-010500-
EAST ARKANSAS

CITY           SKY/WX    TMP DP  RH WIND       PRES   REMARKS
WEST MEMPHIS   CLOUDY    70  69  97 NW3       30.05S
$$

ARZ050-053-066-070-073-010500-
SOUTHWEST ARKANSAS

CITY           SKY/WX    TMP DP  RH WIND       PRES   REMARKS
ARKADELPHIA    CLOUDY    68  67  96 NE5       30.05S
CAMDEN         CLOUDY    66  64  94 NE5       30.03S
TEXARKANA      CLOUDY    68  68 100 NE7       30.02R FOG
EL DORADO      CLOUDY    69  68  96 E7        30.02F
DE QUEEN       CLOUDY    67  66  97 E6        30.03R
$$

ARZ056-057-069-010500-
SOUTHEAST ARKANSAS

CITY           SKY/WX    TMP DP  RH WIND       PRES   REMARKS
PINE BLUFF     CLOUDY    69  66  90 NE7       30.05F
STUTTGART      CLOUDY    68  64  88 NE5       30.07S
MONTICELLO     CLOUDY    71  68  90 NE3       30.04R

$$





USA.gov is the U.S. government's official web portal to all federal, state and local government web resources and services.